Content
SEND FEEDBACK

Daily
Averages
Monthly
Summary
Spain

MADRID, SPAIN


Home > Europe > Spain
Elevation: 1909 feet     Latitude: 40 27N     Longitude: 003 33W

WEATHER
 
SELECT A DAY
Number of Records: 302,923;   Date Range: 7/1/96 - 8/30/14
 
SHARE

PRINT THIS DATA

[ ← Previous Day ]
WEATHER ALMANAC - FEBRUARY 4, 2013
[ Next Day → ]
[ °C ]   °F
Weather ElementAverageHighLow
Temperature43.2 °F59 °F (3:30 pm)30 °F (7:00 am)
Dewpoint31.8 °F39.2 °F (4:30 pm)25 °F (7:00 am)
Humidity65.4 %87 % (10:00 am)35 % (1:00 pm)
Barometer30.41 in30.54 in (7:00 am)30.36 in (3:30 pm)
Wind Speed2.9 mph6.9 mph (7:00 pm)
Wind Gust13.8 mph (3:00 pm)
Weather ElementAverage
Visibility8.3 mi
Wind DirectionESE (115.7 °)

Weather ElementTotal
Precipitation---
Heating Degree Days20.5 (Base 65)
Averaged from 46 records on February 4, 2013
WEATHER CONDITIONS BREAKOUT
WIND DIRECTION BREAKOUT
WEATHER BY HOUR - FEBRUARY 4, 2013
[ °C ]   °F
Local TimeTemperatureDewpointHumidityBarometerVisibilityWind DirectionWind SpeedGust SpeedPrecipitationEventsConditions
12:30 AM37.4 °F28.4 °F70 %30.42 inNNE (20°)3.5 mphClear
1:00 AM36.0 °F26.0 °F57 %30.50 in19.0 miWest (280°)2.3 mphClear
1:00 AM35.6 °F28.4 °F75 %30.42 inVariable2.3 mphClear
1:30 AM35.6 °F28.4 °F75 %30.42 inCalmClear
2:00 AM37.4 °F28.4 °F70 %30.42 inVariable1.2 mphClear
2:30 AM37.4 °F28.4 °F70 %30.39 inWest (280°)2.3 mphClear
3:00 AM33.8 °F28.4 °F81 %30.42 inVariable2.3 mphClear
3:30 AM35.6 °F28.4 °F75 %30.42 inSSW (210°)5.8 mphClear
4:00 AM35.6 °F26.6 °F70 %30.42 inSW (230°)5.8 mphClear
4:30 AM35.6 °F28.4 °F75 %30.42 inSW (230°)4.6 mphClear
5:00 AM33.8 °F26.6 °F75 %30.42 inEast (90°)3.5 mphClear
5:30 AM32.0 °F26.6 °F80 %30.42 inSE (130°)3.5 mphClear
6:00 AM30.2 °F26.6 °F86 %30.42 inENE (60°)2.3 mphClear
6:30 AM32.0 °F26.6 °F80 %30.42 inWNW (300°)2.3 mphClear
7:00 AM30.0 °F25.0 °F73 %30.54 in19.0 miSouth (170°)2.3 mph
7:00 AM30.2 °F26.6 °F86 %30.42 inVariable2.3 mphClear
7:30 AM30.2 °F26.6 °F86 %30.42 inSE (140°)3.5 mphClear
8:00 AM30.2 °F26.6 °F86 %30.45 inCalmClear
8:30 AM30.2 °F26.6 °F86 %30.45 inVariable2.3 mphClear
9:00 AM32.0 °F26.6 °F80 %30.45 in6.2 miVariable1.2 mphPartly Cloudy
9:30 AM32.0 °F26.6 °F80 %30.45 in6.2 miVariable1.2 mphPartly Cloudy
10:00 AM32.0 °F28.4 °F87 %30.45 in6.2 miNorth (360°)2.3 mphScattered Clouds
12:30 PM48.2 °F32.0 °F54 %30.45 in6.2 miVariable2.3 mphScattered Clouds
1:00 PM51.8 °F33.8 °F50 %30.45 in6.2 miWSW (250°)1.2 mphScattered Clouds
1:00 PM52.0 °F32.0 °F35 %30.45 in8.0 miSSW (200°)2.3 mphPartly Cloudy
1:30 PM51.8 °F33.8 °F50 %30.42 in6.2 miENE (70°)2.3 mphPartly Cloudy
2:00 PM53.6 °F32.0 °F44 %30.42 in6.2 miSSW (200°)3.5 mphPartly Cloudy
2:30 PM55.4 °F35.6 °F47 %30.39 in6.2 miSW (220°)3.5 mphPartly Cloudy
3:00 PM55.4 °F33.8 °F44 %30.39 in6.2 miVariable2.3 mph13.8 mphPartly Cloudy
3:30 PM59.0 °F35.6 °F42 %30.36 in6.2 miVariable2.3 mphPartly Cloudy
4:00 PM59.0 °F37.4 °F45 %30.36 in6.2 miSSW (210°)1.2 mphPartly Cloudy
4:30 PM59.0 °F39.2 °F48 %30.36 in6.2 miVariable2.3 mphPartly Cloudy
5:00 PM57.2 °F37.4 °F48 %30.36 in6.2 miVariable2.3 mphPartly Cloudy
5:30 PM57.2 °F39.2 °F51 %30.36 in6.2 miSSE (160°)3.5 mphPartly Cloudy
6:00 PM57.2 °F37.4 °F48 %30.36 in6.2 miSouth (170°)4.6 mphPartly Cloudy
6:30 PM53.6 °F37.4 °F54 %30.36 inSE (140°)4.6 mphClear
7:00 PM51.0 °F36.0 °F46 %30.37 in19.0 miSouth (170°)6.9 mph
7:00 PM55.4 °F37.4 °F51 %30.36 inSouth (170°)5.8 mphClear
7:30 PM51.8 °F37.4 °F58 %30.36 inSouth (190°)4.6 mphClear
8:00 PM50.0 °F37.4 °F62 %30.36 inSSW (200°)4.6 mphClear
8:30 PM51.8 °F37.4 °F58 %30.36 inSW (230°)5.8 mphClear
9:00 PM51.8 °F37.4 °F58 %30.36 inSW (230°)3.5 mphClear
9:30 PM44.6 °F37.4 °F76 %30.36 inVariable2.3 mphClear
10:30 PM42.8 °F35.6 °F76 %30.36 inCalmClear
11:00 PM41.0 °F35.6 °F81 %30.36 inNorth (10°)3.5 mphClear
11:30 PM41.0 °F35.6 °F81 %30.36 inVariable2.3 mphClear
Hourly data recorded from LETO, located miles away from Madrid, Spain







STORIES FROM OUR PARTNERS